[Iaude] MPEC M127: 2020 MK3 [a=0.81,e=0.36,i=2.6,H=25.8]

mpec at marsden.cfa.harvard.edu mpec at marsden.cfa.harvard.edu
Sun Jun 28 07:00:44 EDT 2020


M.P.E.C. 2020-M127                                Issued 2020 June 28, 10:59 UT

     The Minor Planet Electronic Circulars contain information on unusual
         minor planets and routine data on comets.  They are published
    on behalf of Division F of the International Astronomical Union by the
          Minor Planet Center, Smithsonian Astrophysical Observatory,
                          Cambridge, MA 02138, U.S.A.

             Prepared using the Tamkin Foundation Computer Network

                              MPC at CFA.HARVARD.EDU
            URL https://www.minorplanetcenter.net/    ISSN 1523-6714

                                    2020 MK3                                    


Observations:
     K20M03K  C2020 06 16.58165721 07 05.004-12 04 04.31         21.33GVEM127F52
     K20M03K  C2020 06 16.58956121 07 05.135-12 04 08.49         21.57GVEM127F52
     K20M03K  C2020 06 16.59747321 07 05.289-12 04 12.96         22.10GVEM127F52
     K20M03K  C2020 06 20.57446821 12 25.447-12 52 13.79         20.98GVEM127F51
     K20M03K  C2020 06 20.58235221 12 25.707-12 52 21.78         21.39GVEM127F51
     K20M03K  C2020 06 20.59023721 12 25.948-12 52 29.97         21.18GVEM127F51
     K20M03K  C2020 06 20.59814621 12 26.219-12 52 37.97         21.29GVEM127F51
     K20M03K* C2020 06 27.52165321 37 20.24 -18 21 22.7          18.72oVEM127T08
     K20M03K  C2020 06 27.52489921 37 21.45 -18 21 47.1          18.77oVEM127T08
     K20M03K  C2020 06 27.53274321 37 24.37 -18 22 45.4          18.91oVEM127T08
     K20M03K  C2020 06 27.53366521 37 24.72 -18 22 52.2          18.65oVEM127T08
     K20M03K  C2020 06 27.53550521 37 25.32 -18 23 04.9          19.06oVEM127T08
     K20M03K  C2020 06 27.53786921 37 26.23 -18 23 24.0          18.96oVEM127T08
     K20M03K  C2020 06 27.53832921 37 26.41 -18 23 27.9          19.26oVEM127T08
     K20M03K  C2020 06 27.57850721 37 41.520-18 28 32.38         19.21wUEM127F51
     K20M03K  C2020 06 27.58624821 37 44.408-18 29 29.60         19.17wUEM127F51
     K20M03K  C2020 06 27.59398421 37 47.323-18 30 26.82         19.00wUEM127F51
     K20M03K KC2020 06 28.03747521 42 31.58 -19 33 41.0          18.6 GVEM127L01
     K20M03K KC2020 06 28.04098521 42 33.50 -19 34 14.3          18.7 GVEM127L01
     K20M03K KC2020 06 28.04231021 42 34.22 -19 34 26.8          18.6 GVEM127L01
     K20M03K KC2020 06 28.04363421 42 34.95 -19 34 39.5          18.7 GVEM127L01
     K20M03K IC2020 06 28.04831421 42 37.51 -19 35 23.7          18.7 GVEM127L01
     K20M03K KC2020 06 28.05063 21 42 40.61 -19 35 44.7          18.7 GVEM127204
     K20M03K KC2020 06 28.05209921 42 40.90 -19 35 53.1          18.4 GVEM127104
     K20M03K KC2020 06 28.05507721 42 42.55 -19 36 21.8          18.6 GVEM127104
     K20M03K KC2020 06 28.05604 21 42 43.59 -19 36 35.9                VEM127204
     K20M03K KC2020 06 28.05805921 42 44.17 -19 36 49.8          18.6 GVEM127104
     K20M03K KC2020 06 28.06104121 42 45.82 -19 37 18.1          18.5 GVEM127104
     K20M03K KC2020 06 28.06167 21 42 46.71 -19 37 29.7                VEM127204

Observer details:
104 San Marcello Pistoiese.  Observers P. Bacci, M. Maestripieri, M. D.
    Grazia.  Measurers P. Bacci, L. Tesi, G. Fagioli.  0.60-m reflector + CCD.
204 Schiaparelli Observatory.  Observer L. Buzzi.  0.84-m f/3.5 reflector +
    CCD.
F51 Pan-STARRS 1, Haleakala.  Observers J. Bulger, K. Chambers, T. Lowe, A.
    Schultz, M. Willman.  Measurers S. Chastel, M. Huber, Y. Ramanjooloo, R.
    Wainscoat, R. Weryk, K. Chambers, T. de Boer, L. Denneau, J. Fairlamb, H.
    Flewelling, C.-C. Lin, E. Magnier.  1.8-m Ritchey-Chretien + CCD.
F52 Pan-STARRS 2, Haleakala.  Observers J. Bulger, K. Chambers, T. Dukes, T.
    Lowe, A. Schultz, M. Willman.  Measurers S. Chastel, M. Huber, Y.
    Ramanjooloo, R. Wainscoat, R. Weryk.  1.8-m Ritchey-Chretien + CCD.
L01 Visnjan Observatory, Tican.  Observers K. Korlevic, J. Maras.  Measurer K.
    Korlevic.  1.0-m f/2.9 reflector + CCD.
T08 ATLAS-MLO, Mauna Loa.  Observers L. Denneau, J. Tonry, A. Heinze, H.
    Weiland, H. Flewelling.  Measurers L. Denneau, J. Tonry, A. Heinze, H.
    Weiland, H. Flewelling, B. Stalder, A. Fitzsimmons, J. Robinson, N.
    Erasmus.  0.5-m reflector + CCD.

Orbital elements:
2020 MK3                                                 Earth MOID = 0.0040 AU
Epoch 2020 May 31.0 TT = JDT 2459000.5                  Veres
M 196.64503              (2000.0)            P               Q
n   1.34820777     Peri.  333.20341     +0.36787470     -0.92875579
a   0.8115180      Node    95.18295     +0.86114752     +0.32176520
e   0.3569538      Incl.    2.62530     +0.35084635     +0.18406476
P   0.73           H   25.8           G   0.15           U   8
Residuals in seconds of arc
200616 F52  0.3+  0.5+    200627 T08  0.5+  0.4+    200628 L01  0.1-  0.1-
200616 F52  0.2-  0.1+    200627 T08  0.6-  1.4+    200628 L01  0.2-  0.1-
200616 F52  0.4-  0.7-    200627 T08  0.1+  0.0     200628 204  0.0   0.3-
200620 F51  0.1-  0.1-    200627 T08  0.2+  0.5-    200628 104  0.1-  0.1+
200620 F51  0.1+  0.1+    200627 F51  0.0   0.0     200628 104  0.1+  0.3-
200620 F51  0.1-  0.0     200627 F51  0.0   0.0     200628 204  0.3-  0.0
200620 F51  0.2+  0.0     200627 F51  0.1+  0.2-    200628 104  0.1-  0.0
200627 T08  0.4-  0.2+    200628 L01  0.1+  0.1+    200628 104  0.1+  0.1+
200627 T08  0.2-  0.1+    200628 L01  0.0   0.0     200628 204  0.3-  0.2-
200627 T08  0.3+  0.3+    200628 L01  0.1-  0.0

Ephemeris:
2020 MK3                 a,e,i = 0.81, 0.36, 3                   q = 0.5218
Date    TT    R. A. (2000) Decl.     Delta      r    Elong.  Phase     V
2020 05 29    20 48 36.9 -11 42 18   0.1646  1.0965   116.3    55.9    24.1
...
2020 06 13    21 03 15.5 -11 42 31   0.09117 1.0732   127.2    48.9    22.6
...
2020 06 21    21 13 07.9 -12 58 24   0.05235 1.0527   133.0    44.9    21.2
...
2020 06 27    21 33 04.4 -17 20 54   0.02372 1.0336   135.5    43.6    19.4
2020 06 28    21 41 57.1 -19 21 04   0.01905 1.0302   134.9    44.3    19.0
2020 06 29    21 56 54.2 -22 35 05   0.01446 1.0266   133.2    46.2    18.4
...
2020 07 05    08 14 02.3 -02 56 02   0.01582 1.0033    31.8   147.7    24.8
...
2020 07 13    08 46 47.4 +06 25 30   0.05405 0.9675    24.1   154.6    28.8
...
2020 07 28    08 50 06.2 +09 36 31   0.1323  0.8858    10.6   167.8

M. P. C. Staff               (C) Copyright 2020 MPC           M.P.E.C. 2020-M127




More information about the Iaude mailing list